Weather in Põltsamaa

Estonia     58°39′10″N   25°58′34″E
temp.,
°C
wind,
m/s
gust,
m/s
humid.,
%
clouds,
%
prec.,
mm/h
press.,
hPa
HPBL,
m
13 april, tue
tue1300:00+8wsw1285100 0.0 101831
03:00+9sw2690100 0.0 1017307
06:00+7w2491100 0.1 1018316
09:00+5wnw3589100 0.3 1020478
12:00+5wnw2585100 0.0 1021486
15:00+5wnw1486100 0.4 1022609
18:00+4wnw2488100 1.1 1022490
21:00+3se1293100 2.1 102175
14 april, wed
wed1400:00+3ssw1388100 0.0 102195
03:00+3wnw1185100 0.1 102123
06:00+2nw238791 0.0 102067
09:00+4nnw247496 0.0 1021391
12:00+7nnw236160 0.0 10211145
15:00+9nnw334674 0.0 10211744
18:00+9n435151 0.0 10221495
21:00+4nne387177 0.0 1024212
15 april, thu
thu1500:00+2n2779100 0.0 1025209
03:00+2nne31274100 0.0 1025351
06:00+1nne3118190 0.0 1026312
09:00+4nne4107165 0.0 1027618
12:00+7ne585277 0.0 10271079
15:00+7ne694297 0.0 10271104
18:00+6nne51151100 0.0 1027918
21:00+4ne51458100 0.0 1028708
16 april, fri
fri1600:00+3ne5135897 0.0 1028523
03:00+1ne4146820 0.0 1028437
06:00+1ne4147213 0.0 1028423
09:00+4ne412585 0.0 1029626
12:00+9ene58425 0.0 10291006
15:00+11ne58385 0.0 10291279
18:00+9ne59485 0.0 10291041
21:00+5ne412605 0.0 1031407
17 april, sat
sat1700:00+3ne412677 0.0 1032353
03:00+3ene3127498 0.0 1033337
06:00+2ene3118091 0.0 1033286
09:00+6ene411637 0.0 1034476
12:00+10e58465 0.0 1034916
15:00+12e57425 0.0 10341202
18:00+12e46470 0.0 10331184
21:00+6ne37755 0.0 1034125